Regional Weather Roundup
Issued by NWS

Home | Current Version | Previous Version | Text Only | Print | Product List | Glossary Off
Versions: 1 2 3 4 5 6 7 8 9 10 11 12 13 14 15 16 17 18 19 20 21 22 23 24 25 26 27 28 29 30 31 32 33 34 35 36 37 38 39 40 41 42 43 44 45 46 47 48 49 50

546
ASUS43 KMKX 122010
RWRWI

WISCONSIN REGIONAL WEATHER ROUNDUP
NATIONAL WEATHER SERVICE MILWAUKEE/SULLIVAN WI
200 PM CST FRI FEB 12 2016

NOTE: "FAIR" INDICATES FEW OR NO CLOUDS BELOW 12,000 FEET WITH NO
SIGNIFICANT WEATHER AND/OR OBSTRUCTIONS TO VISIBILITY.

WIZ001-002-006>008-014>016-023>028-122100-
NORTHWEST WISCONSIN

CITY           SKY/WX    TMP DP  RH WIND       PRES   REMARKS
SUPERIOR ARPT  SUNNY      4 -13  44 NW12G18   30.46S WCI -12
ASHLAND        CLOUDY     3  -8  60 NW16G23   30.39R WCI -16
HAYWARD        MOSUNNY    4 -14  43 N13G21    30.35R WCI -13
SIREN          SUNNY      6 -15  36 N14G20    30.42S WCI -10
CUMBERLAND     SUNNY      5 -13  43 N22G29    30.35S WCI -16
RICE LAKE      SUNNY      7 -13  39 NW13G21   30.38R WCI  -9
CHETEK         SUNNY      7 -10  44 MISG      30.36R
LADYSMITH      MOSUNNY    6 -10  47 NW20G26   30.32R WCI -13
EAU CLAIRE     SUNNY      9 -10  42 NW14G28   30.36R WCI  -7
MENOMONIE      SUNNY     12  -9  38 NW18G29   30.38R WCI  -6
NEW RICHMOND   SUNNY      8  -9  47 NW20G25   30.41S WCI -12
OSCEOLA        SUNNY      8  -9  45 NW16G26   30.47R WCI -10
$$

WIZ003>005-009-010-017-018-122100-
NORTH CENTRAL WISCONSIN

CITY           SKY/WX    TMP DP  RH WIND       PRES   REMARKS
MANITOWISH WTR CLOUDY     0 -11  61 NW21G30   30.20R HAZE    WCI -23
ARBOR VITAE    CLOUDY     2  -6  66 NW15G30   30.20R HAZE    WCI -16
WOODRUFF       CLOUDY     2  -6  66 NW15G30   30.20R HAZE    WCI -16
RHINELANDER    CLOUDY     3 -11  52 NW20G32   30.17R BLWGSNOWWCI -18
EAGLE RIVER    PTSUNNY    2 -11  54 NW23G33   30.15R HAZE    WCI -21
LAND O LAKES   LGT SNOW   1  -8  65 NW14G28   30.17R VSB 1   WCI -18
PHILLIPS       PTSUNNY    2  -9  59 NW13G22   30.24R WCI -15
TOMAHAWK       PTSUNNY    5 -14  42 NW15G24   30.21R WCI -13
MEDFORD        MOSUNNY    6  -8  51 NW21G29   30.21R HAZE    WCI -14
MERRILL        PTSUNNY    7 -10  46 N14G25    30.21R WCI -10
$$

WIZ029-030-035-036-043>047-122100-
CENTRAL WISCONSIN

CITY           SKY/WX    TMP DP  RH WIND       PRES   REMARKS
WAUSAU         MOSUNNY   10  -9  42 NW18G28   30.19R WCI  -8
MOSINEE        MOSUNNY    9  -6  52 NW23G32   30.20R WCI -12
MARSHFIELD     MOSUNNY    8  -7  50 NW24G32   30.21R WCI -13
STEVENS POINT  MOSUNNY    9  -9  44 NW15G24   30.21R WCI  -7
WAUPACA        MOSUNNY   16  -6  38 W13G22    30.20R WCI   2
WAUTOMA        MOSUNNY   14  -5  42 NW18G26   30.22R WCI  -3
WISC RAPIDS    PTSUNNY   10  -6  48 NW22G32   30.25R WCI -10
CAMP DOUGLAS   MOSUNNY   14  -4  44 NW21G32   30.25R WCI  -4
$$

WIZ011>013-019>022-031-037>040-048>050-122100-
NORTHEAST WISCONSIN

CITY           SKY/WX    TMP DP  RH WIND       PRES   REMARKS
ANTIGO         PTSUNNY    5  -9  52 NW21G30   30.14R WCI -16
SHAWANO        CLOUDY    16  -7  36 NW17G28   30.16S WCI   0
OCONTO         PTSUNNY   13  -3  48 NW16G25   30.14R WCI  -3
STURGEON BAY   CLOUDY    12   1  62 N16G29    30.13R WCI  -4
GREEN BAY      CLOUDY    13  -2  51 NW21G29   30.15R WCI  -5
MANITOWOC      PTSUNNY   16   0  49 NW21G29   30.13R WCI  -1
APPLETON       PTSUNNY   12  -8  40 NW20G28   30.14R WCI  -6
CLINTONVILLE   PTSUNNY   14  -8  37 NW16G22   30.17R WCI  -2
OSHKOSH        CLOUDY    14  -3  47 NW23G30   30.16R WCI  -5
$$

WIZ032>034-041-042-053>061-122100-
SOUTHWEST WISCONSIN

CITY           SKY/WX    TMP DP  RH WIND       PRES   REMARKS
LA CROSSE      SUNNY     14  -1  51 NW21      30.34R WCI  -4
SPARTA         SUNNY     15   0  51 NW18G26   30.30S WCI  -2
VIROQUA        SUNNY     13  -1  52 NW20      30.25R WCI  -5
BOSCOBEL       SUNNY     19  -1  41 W15G26    30.30R WCI   5
PRAIRIE DU CHI SUNNY     17  -2  44 W24G32    30.32S WCI  -2
PLATTEVILLE    SUNNY     17   4  55 NW20G25   30.25R WCI   1
$$

WIZ056-057-062-063-064-067-068-122100-
SOUTH CENTRAL WISCONSIN

CITY           SKY/WX    TMP DP  RH WIND       PRES   REMARKS
REEDSBURG      SUNNY     16  -2  46 NW16G23   30.23S WCI   0
BARABOO/DELLS  SUNNY     16  -5  40 NW17G24   30.21R WCI   0
LONE ROCK      SUNNY     18  -2  41 NW22G33   30.26R WCI   1
MINERAL POINT  SUNNY     19   0  42 NW17G29   30.21S WCI   4
MADISON        MOSUNNY   17  -2  43 NW17G28   30.19R WCI   1
MIDDLETON      SUNNY     19  -1  41 NW24G31   30.20S WCI   1
WATERTOWN      MOSUNNY   18  -1  43 NW21G31   30.16S WCI   1
MONROE         MOSUNNY   21   1  42 NW23G33   30.18S WCI   5
JANESVILLE     MOSUNNY   21   1  42 NW23G30   30.18S WCI   5
$$

WIZ051-052-058>065-066-070>072-122100-
SOUTHEAST WISCONSIN

CITY           SKY/WX    TMP DP  RH WIND       PRES   REMARKS
MILWAUKEE      PTSUNNY   19  -2  39 NW21G29   30.14R WCI   3
WAUKESHA       PTSUNNY   16  -2  45 NW26G32   30.15R WCI  -3
MILWAUKEE/TIMM MOSUNNY   18  -2  41 NW25G36   30.15R WCI  -1
RACINE         MOSUNNY   20  -1  40 W21G30    30.15R WCI   4
BURLINGTON     MOSUNNY   19   2  48 NW22G30   30.15R WCI   2
KENOSHA        MOSUNNY   21   3  45 NW21G28   30.14R WCI   5
FOND DU LAC    PTSUNNY   14  -2  49 NW23G32   30.17R WCI  -5
SHEBOYGAN      CLOUDY    15  -2  46 NW23G32   30.13R WCI  -3
WEST BEND      MOSUNNY   16  -4  41 NW24G30   30.14R WCI  -3
JUNEAU         MOSUNNY   15  -1  48 NW16G24   30.17R WCI   0
$$

LSZ147-162-122100-
LAKE SUPERIOR

STATION/POSITION TIME  TEMP    WIND        PRES    WAVE
                       AIR SEA DIR/SP/G            HT/PER
                 (UTC) (F)     (DEG/KT/KT) (MB)    (FT/S)
DEVILS ISLAND    2000    2     300/ 21/ 27 1031.0R
PORT WING        1800    2     320/ 16/ 21 1029.5
SAXON HARBOR     1940    2                 1028.4R
$$

LMZ867-665-643>646-122100-
LAKE MICHIGAN

STATION/POSITION TIME  TEMP    WIND        PRES    WAVE
                       AIR SEA DIR/SP/G            HT/PER
                 (UTC) (F)     (DEG/KT/KT) (MB)    (FT/S)
CHAMBERS ISLAND  1900   14     310/ 18/ 27 1019.3R
SISTER BAY       1905   14     340/ 28/ 33   N/A
ALGOMA LAKESHORE 1911          320/ 17/ 26   N/A
KEWAUNEE LAKESHO 1900   16     300/ 14/ 21 1018.5R
SHEBOYGAN LAKESH 2000   14     330/ 20/ 25 1022.0R
PORT WASHINGTON  1914   18     280/ 16/ 25 1021.0S
MILWAUKEE LAKESH 1910   18     300/ 13/ 16   N/A
KENOSHA   LAKESH 2000   19     310/ 21/ 29 1020.3S
$$

TC  - TEMPERATURE IN CELSIUS
VSB - VISIBILITY IN STATUTE MILES
WCI - WIND CHILL INDEX
HX  - HEAT INDEX





USA.gov is the U.S. government's official web portal to all federal, state and local government web resources and services.